When you browse on this site, cookies collect data to enhance your experience and personalize the content and advertising you see.
Visit our Privacy Policy to learn more. By continuing to use the site, you agree to this use of cookies and data.
  • In Spain
  • List of Countries
  • For 7 days
  • Water Temperature
  • Satellite Maps
  • Weather Map
  • Weather Widgets
  • user-avatar
    Login

    Hourly Weather Kaprun

    Today, 21 July, Sunday

    Time Temperature Precipitation Wind Pressure Humidity
    00:00 +11°C° 0.4 mm 1 mps 602 mmHg 92%
    01:00 +11°C° 0.4 mm 1 mps 602 mmHg 90%
    02:00 +10°C° 0 mm 1 mps 601 mmHg 88%
    03:00 +10°C° 0 mm 1 mps 601 mmHg 86%
    04:00 +9°C° 0 mm 1 mps 600 mmHg 84%
    05:00 +10°C° 0 mm 0 mps 601 mmHg 81%
    06:00 +12°C° 0 mm 0 mps 602 mmHg 77%
    07:00 +13°C° 0 mm 0 mps 603 mmHg 73%
    08:00 +13°C° 0.3 mm 0 mps 604 mmHg 76%
    09:00 +14°C° 0.3 mm 1 mps 604 mmHg 79%
    10:00 +14°C° 0.3 mm 1 mps 604 mmHg 82%
    11:00 +14°C° 0.8 mm 1 mps 604 mmHg 84%
    12:00 +14°C° 0.8 mm 1 mps 604 mmHg 87%
    13:00 +14°C° 0.8 mm 1 mps 604 mmHg 90%
    14:00 +14°C° 0.6 mm 1 mps 604 mmHg 85%
    15:00 +15°C° 0.6 mm 1 mps 604 mmHg 81%
    16:00 +16°C° 0.6 mm 2 mps 605 mmHg 77%
    17:00 +15°C° 0.2 mm 2 mps 605 mmHg 80%
    18:00 +14°C° 0.2 mm 1 mps 604 mmHg 83%
    19:00 +13°C° 0.2 mm 1 mps 604 mmHg 87%
    20:00 +12°C° 0 mm 1 mps 604 mmHg 88%
    21:00 +10°C° 0 mm 1 mps 603 mmHg 89%
    22:00 +9°C° 0 mm 1 mps 603 mmHg 91%
    23:00 +8°C° 0 mm 1 mps 603 mmHg 90%

    Tomorrow, 22 July, Monday

    Time Temperature Precipitation Wind Pressure Humidity
    00:00 +8°C° 0 mm 1 mps 603 mmHg 90%
    01:00 +8°C° 0 mm 1 mps 603 mmHg 90%
    02:00 +8°C° 0 mm 1 mps 603 mmHg 88%
    03:00 +7°C° 0 mm 1 mps 603 mmHg 87%
    04:00 +7°C° 0 mm 1 mps 602 mmHg 85%
    05:00 +9°C° 0 mm 1 mps 603 mmHg 81%
    06:00 +11°C° 0 mm 1 mps 604 mmHg 77%
    07:00 +12°C° 0 mm 0 mps 606 mmHg 73%
    08:00 +15°C° 0 mm 1 mps 606 mmHg 65%
    09:00 +16°C° 0 mm 1 mps 607 mmHg 58%
    10:00 +19°C° 0 mm 1 mps 608 mmHg 50%
    11:00 +20°C° 0 mm 1 mps 608 mmHg 48%
    12:00 +20°C° 0 mm 2 mps 608 mmHg 45%
    13:00 +20°C° 0 mm 2 mps 608 mmHg 43%
    14:00 +20°C° 0 mm 2 mps 608 mmHg 45%
    15:00 +20°C° 0 mm 2 mps 607 mmHg 48%
    16:00 +19°C° 0 mm 2 mps 607 mmHg 50%
    17:00 +18°C° 0 mm 2 mps 606 mmHg 61%
    18:00 +16°C° 0 mm 2 mps 606 mmHg 71%
    19:00 +15°C° 0 mm 1 mps 605 mmHg 82%
    20:00 +13°C° 0 mm 1 mps 605 mmHg 86%
    21:00 +12°C° 0 mm 1 mps 604 mmHg 90%
    22:00 +10°C° 0 mm 1 mps 604 mmHg 93%
    23:00 +10°C° 0 mm 1 mps 604 mmHg 92%

    Day after tomorrow, 23 July, Tuesday

    Time Temperature Precipitation Wind Pressure Humidity
    00:00 +10°C° 0 mm 1 mps 604 mmHg 92%
    01:00 +10°C° 0 mm 1 mps 604 mmHg 91%
    02:00 +10°C° 0 mm 1 mps 603 mmHg 90%
    03:00 +9°C° 0 mm 1 mps 603 mmHg 89%
    04:00 +9°C° 0 mm 1 mps 602 mmHg 88%
    05:00 +11°C° 0 mm 1 mps 603 mmHg 82%
    06:00 +12°C° 0 mm 0 mps 604 mmHg 75%
    07:00 +14°C° 0 mm 0 mps 605 mmHg 69%
    08:00 +18°C° 0 mm 1 mps 606 mmHg 59%
    09:00 +19°C° 0 mm 1 mps 606 mmHg 50%
    10:00 +21°C° 0 mm 1 mps 607 mmHg 41%
    11:00 +22°C° 0 mm 1 mps 607 mmHg 39%
    12:00 +23°C° 0 mm 1 mps 607 mmHg 38%
    13:00 +23°C° 0 mm 2 mps 607 mmHg 36%
    14:00 +23°C° 0 mm 2 mps 607 mmHg 37%
    15:00 +23°C° 0 mm 2 mps 607 mmHg 39%
    16:00 +23°C° 0 mm 2 mps 606 mmHg 41%
    17:00 +21°C° 0 mm 1 mps 606 mmHg 53%
    18:00 +19°C° 0 mm 1 mps 605 mmHg 65%
    19:00 +18°C° 0 mm 1 mps 604 mmHg 78%
    20:00 +15°C° 0 mm 1 mps 604 mmHg 80%
    21:00 +14°C° 0 mm 1 mps 603 mmHg 83%
    22:00 +12°C° 0 mm 1 mps 603 mmHg 86%
    23:00 +12°C° 0 mm 1 mps 603 mmHg 87%

    24 July, Wednesday

    Time Temperature Precipitation Wind Pressure Humidity
    00:00 +12°C° 0 mm 2 mps 603 mmHg 88%
    01:00 +12°C° 0 mm 2 mps 602 mmHg 89%
    02:00 +12°C° 0 mm 2 mps 602 mmHg 88%
    03:00 +12°C° 0 mm 1 mps 602 mmHg 88%
    04:00 +12°C° 0 mm 1 mps 602 mmHg 87%
    05:00 +14°C° 0 mm 1 mps 603 mmHg 82%
    06:00 +15°C° 0 mm 1 mps 603 mmHg 78%
    07:00 +16°C° 0 mm 0 mps 604 mmHg 73%
    08:00 +20°C° 0 mm 1 mps 605 mmHg 64%
    09:00 +21°C° 0 mm 1 mps 606 mmHg 55%
    10:00 +23°C° 0 mm 1 mps 606 mmHg 46%
    11:00 +24°C° 0 mm 1 mps 606 mmHg 43%
    12:00 +24°C° 0 mm 1 mps 606 mmHg 39%
    13:00 +25°C° 0 mm 2 mps 606 mmHg 36%
    14:00 +25°C° 0 mm 2 mps 606 mmHg 37%
    15:00 +25°C° 0 mm 2 mps 606 mmHg 39%
    16:00 +24°C° 0 mm 2 mps 606 mmHg 40%
    17:00 +21°C° 0.1 mm 2 mps 605 mmHg 53%
    18:00 +21°C° 0.1 mm 1 mps 604 mmHg 66%
    19:00 +19°C° 0.1 mm 1 mps 604 mmHg 78%
    20:00 +16°C° 0 mm 1 mps 603 mmHg 81%
    21:00 +15°C° 0 mm 1 mps 603 mmHg 84%
    22:00 +13°C° 0 mm 1 mps 602 mmHg 87%
    23:00 +13°C° 0 mm 1 mps 602 mmHg 86%

    25 July, Thursday

    Time Temperature Precipitation Wind Pressure Humidity
    00:00 +13°C° 0 mm 1 mps 602 mmHg 85%
    01:00 +13°C° 0 mm 1 mps 602 mmHg 84%
    02:00 +13°C° 0 mm 1 mps 602 mmHg 82%
    03:00 +12°C° 0 mm 1 mps 602 mmHg 81%
    04:00 +12°C° 0 mm 1 mps 601 mmHg 79%
    05:00 +13°C° 0 mm 0 mps 602 mmHg 74%
    06:00 +15°C° 0 mm 0 mps 603 mmHg 69%
    07:00 +17°C° 0 mm 0 mps 604 mmHg 64%
    08:00 +18°C° 0 mm 0 mps 605 mmHg 59%
    09:00 +22°C° 0 mm 1 mps 605 mmHg 54%
    10:00 +23°C° 0 mm 1 mps 606 mmHg 49%
    11:00 +24°C° 0 mm 1 mps 606 mmHg 47%
    12:00 +25°C° 0 mm 2 mps 606 mmHg 45%
    13:00 +26°C° 0 mm 2 mps 606 mmHg 44%
    14:00 +25°C° 0.8 mm 2 mps 605 mmHg 47%
    15:00 +24°C° 0.8 mm 2 mps 605 mmHg 51%
    16:00 +24°C° 0.8 mm 1 mps 605 mmHg 55%
    17:00 +22°C° 1.2 mm 1 mps 604 mmHg 64%
    18:00 +20°C° 1.2 mm 1 mps 603 mmHg 73%
    19:00 +18°C° 1.2 mm 1 mps 602 mmHg 83%
    20:00 +18°C° 0.6 mm 1 mps 602 mmHg 84%
    21:00 +16°C° 0.6 mm 2 mps 602 mmHg 85%
    22:00 +15°C° 0.6 mm 2 mps 601 mmHg 86%
    23:00 +15°C° 0.1 mm 2 mps 601 mmHg 87%

    26 July, Friday

    Time Temperature Precipitation Wind Pressure Humidity
    00:00 +14°C° 0.1 mm 2 mps 601 mmHg 87%
    01:00 +14°C° 0.1 mm 2 mps 601 mmHg 87%
    02:00 +14°C° 0.1 mm 2 mps 600 mmHg 88%
    03:00 +14°C° 0.1 mm 2 mps 600 mmHg 88%
    04:00 +13°C° 0.1 mm 2 mps 600 mmHg 88%
    05:00 +14°C° 0.1 mm 2 mps 600 mmHg 86%
    06:00 +15°C° 0.1 mm 1 mps 601 mmHg 85%
    07:00 +16°C° 0.1 mm 1 mps 601 mmHg 83%
    08:00 +19°C° 0.9 mm 1 mps 602 mmHg 78%
    09:00 +20°C° 0.9 mm 1 mps 602 mmHg 72%
    10:00 +22°C° 0.9 mm 1 mps 603 mmHg 66%
    11:00 +22°C° 2.5 mm 1 mps 603 mmHg 66%
    12:00 +22°C° 2.5 mm 1 mps 602 mmHg 67%
    13:00 +21°C° 2.5 mm 1 mps 602 mmHg 68%
    14:00 +21°C° 2.7 mm 1 mps 602 mmHg 73%
    15:00 +20°C° 2.7 mm 1 mps 601 mmHg 78%
    16:00 +18°C° 2.7 mm 2 mps 601 mmHg 83%
    17:00 +16°C° 1.9 mm 1 mps 601 mmHg 87%
    18:00 +15°C° 1.9 mm 1 mps 600 mmHg 91%
    19:00 +14°C° 1.9 mm 1 mps 600 mmHg 95%
    20:00 +13°C° 0.1 mm 1 mps 600 mmHg 93%
    21:00 +13°C° 0.1 mm 1 mps 600 mmHg 91%
    22:00 +12°C° 0.1 mm 1 mps 599 mmHg 89%
    23:00 +12°C° 0 mm 1 mps 599 mmHg 89%
    Show more